Location: Bogis-Bossey
(46.3500°N, 6.1667°E)
Time: 18:06:33
(UTC+00:00)

NOSS 2-2 (D) - Pass Details

Date: 17 August 2022
Orbit: 430 x 1768 km, 63.3° (Epoch: 23 September)

Event Time Altitude Azimuth Distance (km) Brightness Sun altitude
Rises 20:48:22 0° 231° (SW) 2,438 6.7 -19.2°
Reaches altitude 10° 20:50:29 10° 238° (WSW) 1,534 5.7 -19.4°
Maximum altitude 20:53:40 48° 314° (NW) 583 3.8 -19.8°
Drops below altitude 10° 20:57:02 10° 30° (NNE) 1,631 5.9 -20.2°
Sets 20:59:22 0° 36° (NE) 2,616 6.9 -20.5°
